[Date Prev][Date Next][Thread Prev][Thread Next] - [Date Index][Thread Index][Author Index]
2 Line ISS Keps 1-23
- Subject: [sarex] 2 Line ISS Keps 1-23
- From: "Dave Larsen PhD" <doc@xxxxxxxxxxx>
- Date: Fri, 23 Jan 2009 06:01:41 -0800
ISS
1 25544U 98067A 09021.90854292 +.00011432 +00000-0 +95712-4 0 01172
2 25544 051.6436 335.7578 0007718 292.9948 166.3593 15.70502208582942
----
Sent via sarex@amsat.org. Opinions expressed are those of the author.
Not an AMSAT member? Join now to support the amateur satellite program!
Subscription settings: http://amsat.org/mailman/listinfo/sarex
AMSAT Home